TimeEDT,TemperatureF,Dew PointF,Humidity,Sea Level PressureIn,VisibilityMPH,Wind Direction,Wind SpeedMPH,Gust SpeedMPH,PrecipitationIn,Events,Conditions,WindDirDegrees,DateUTC
12:52 AM,54.0,44.1,69,29.91,10.0,WNW,4.6,-,N/A,,Clear,290,2012-10-16 04:52:00
1:52 AM,51.1,44.1,77,29.91,10.0,NNE,4.6,-,N/A,,Mostly Cloudy,30,2012-10-16 05:52:00
2:52 AM,51.1,43.0,74,29.91,10.0,Calm,Calm,-,N/A,,Mostly Cloudy,0,2012-10-16 06:52:00
3:52 AM,48.2,44.6,87,29.92,10.0,Calm,Calm,-,N/A,,Mostly Cloudy,0,2012-10-16 07:52:00
4:52 AM,48.0,44.1,86,29.92,10.0,Calm,Calm,-,N/A,,Mostly Cloudy,0,2012-10-16 08:52:00
5:52 AM,46.9,44.1,90,29.94,10.0,North,3.5,-,N/A,,Mostly Cloudy,360,2012-10-16 09:52:00
6:52 AM,48.9,43.0,80,29.95,10.0,Calm,Calm,-,N/A,,Partly Cloudy,0,2012-10-16 10:52:00
7:52 AM,44.6,42.8,93,29.97,10.0,North,3.5,-,N/A,,Partly Cloudy,10,2012-10-16 11:52:00
8:52 AM,55.0,46.9,74,29.99,10.0,Calm,Calm,-,N/A,,Clear,0,2012-10-16 12:52:00
9:52 AM,60.1,45.0,57,29.99,10.0,Calm,Calm,-,N/A,,Clear,0,2012-10-16 13:52:00
10:52 AM,62.1,42.1,48,29.99,10.0,ENE,3.5,-,N/A,,Partly Cloudy,70,2012-10-16 14:52:00
11:52 AM,64.9,42.1,43,29.98,10.0,Variable,6.9,-,N/A,,Partly Cloudy,0,2012-10-16 15:52:00
12:52 PM,66.9,44.1,44,29.96,10.0,West,6.9,-,N/A,,Clear,280,2012-10-16 16:52:00
1:52 PM,66.9,43.0,42,29.94,10.0,Variable,4.6,-,N/A,,Clear,0,2012-10-16 17:52:00
2:52 PM,68.0,41.0,37,29.91,10.0,Calm,Calm,-,N/A,,Clear,0,2012-10-16 18:52:00
3:52 PM,69.1,41.0,36,29.89,10.0,South,3.5,-,N/A,,Partly Cloudy,190,2012-10-16 19:52:00
4:52 PM,69.1,42.1,38,29.89,10.0,Calm,Calm,-,N/A,,Partly Cloudy,0,2012-10-16 20:52:00
5:52 PM,66.9,42.1,40,29.89,10.0,South,5.8,-,N/A,,Partly Cloudy,190,2012-10-16 21:52:00
6:52 PM,62.1,43.0,50,29.89,10.0,South,4.6,-,N/A,,Scattered Clouds,180,2012-10-16 22:52:00
7:52 PM,57.0,46.0,67,29.90,10.0,SSE,4.6,-,N/A,,Scattered Clouds,160,2012-10-16 23:52:00
8:52 PM,57.9,44.1,60,29.90,10.0,South,3.5,-,N/A,,Mostly Cloudy,170,2012-10-17 00:52:00
9:52 PM,55.9,44.1,64,29.91,10.0,Calm,Calm,-,N/A,,Scattered Clouds,0,2012-10-17 01:52:00
10:52 PM,55.0,45.0,69,29.92,10.0,SSW,3.5,-,N/A,,Scattered Clouds,200,2012-10-17 02:52:00
11:52 PM,53.1,46.0,77,29.93,10.0,Calm,Calm,-,N/A,,Overcast,0,2012-10-17 03:52:00